Regional Weather Roundup
Issued by NWS

Home | Current Version | Previous Version | Text Only | Print | Product List | Glossary Off
Versions: 1 2 3 4 5 6 7 8 9 10 11 12 13 14 15 16 17 18 19 20 21 22 23 24 25 26 27 28 29 30 31 32 33 34 35 36 37 38 39 40 41 42 43 44 45 46 47 48 49 50

000
ASUS43 KDTX 200410
RWRMI
MICHIGAN HOURLY REGIONAL WEATHER ROUNDUP
NATIONAL WEATHER SERVICE DETROIT/PONTIAC MI
1200 AM EDT SAT SEP 20 2014

NOTE: "FAIR" INDICATES FEW OR NO CLOUDS BELOW 12,000 FEET WITH NO
SIGNIFICANT WEATHER AND/OR OBSTRUCTION TO VISIBILITY.

MIZ047>049-052>055-059>063-066>070-074>076-081>083-200500-
SOUTHEAST LOWER MICHIGAN

CITY           SKY/WX    TMP DP  RH WIND       PRES   REMARKS
ADRIAN         PTCLDY    52  50  93 CALM      30.07F
ALMA           MOCLDY    56  50  81 S6        29.98F
ANN ARBOR      FOG       45  45 100 CALM      30.05F VSB 3/4
BAD AXE        MOCLDY    55  51  87 S13       30.01F
CARO           MOCLDY    55  48  79 S9        30.02F
DETROIT CITY   PTCLDY    58  51  78 CALM      30.06F
DETROIT        MOCLDY    55  52  89 CALM      30.07F
FLINT          PTCLDY    55  50  83 S7        30.03F
GROSSE ILE     PTCLDY    64  59  82 S7        30.05F
HILLSDALE      PTCLDY    53  52  98 S5        30.05F
HOWELL         PTCLDY    54  51  91 SE7       30.03F

CITY           SKY/WX    TMP DP  RH WIND       PRES   REMARKS
JACKSON        CLEAR     54  51  90 S8        30.04F
LAMBERTVILLE   MOCLDY    52  50  93 CALM      30.07S FOG
LANSING        PTCLDY    57  50  77 S9        30.02F
LAPEER         FAIR      53  49  84 S7        30.04F
MASON          PTCLDY    53  50  89 S6        30.03F
MONROE         PTCLDY    52  52 100 CALM      30.05S FOG
MT. CLEMENS    PTCLDY    54  54 100 S5        30.04F
PONTIAC        PTCLDY    54  50  86 S6        30.04F
PORT HOPE        N/A     56  49  77 S8        29.98F
PORT HURON     PTCLDY    48  48 100 S3        30.05F FOG
TRI CITIES     MOCLDY    57  50  77 S15G23    30.00F
TROY           PTCLDY    56  51  82 CALM      30.07F
SAGINAW HB     MOCLDY    55  48  76 S9        30.00F
$$
MIZ043>046-050>051-056>058-064>065-071>073-077>080-200500-
SOUTHWEST LOWER MICHIGAN

CITY           SKY/WX    TMP DP  RH WIND       PRES   REMARKS
BATTLE CREEK   MOCLDY    59  47  64 S12       30.03F
BENTON HARBOR  CLEAR     58  48  69 S8        29.98F
BIG RAPIDS     CLOUDY    60  52  73 S6G17     29.94S
COLDWATER      PTCLDY    56  49  76 S6        30.04F
FREMONT        FAIR      61  46  59 S8        29.93F
HOLLAND        PTCLDY    62  50  64 S9        29.97F
GRAND RAPIDS   MOCLDY    62  49  62 S16       29.98F
IONIA          FAIR      60  49  66 S13       29.99F
KALAMAZOO      PTCLDY    58  48  69 S7        30.02F
LUDINGTON      PTCLDY    67  50  53 S21G28    29.89F
MARSHALL       PTCLDY    55  46  73 S5        30.03S
MOUNT PLEASANT PTCLDY    57  49  74 S7        29.96F
MUSKEGON       PTCLDY    66  48  52 S17G24    29.94F
SOUTH HAVEN    PTCLDY    59  50  71 S7        29.98F
$$
MIZ016>042-200500-
NORTHERN LOWER MICHIGAN

CITY           SKY/WX    TMP DP  RH WIND       PRES   REMARKS
ALPENA         MOCLDY    58  46  64 S10       29.90S
BEAVER ISLAND  MOCLDY    66  51  57 SW17G26   29.80R
BELLAIRE       CLOUDY    65  50  58 S6G17     29.87R
CADILLAC       PTCLDY    58  50  75 S12G20    29.91F
CHARLEVOIX     CLOUDY    65  52  61 S14G28    29.83F
FRANKFORT      CLOUDY    67  48  49 S13G25    29.84F
GAYLORD        MOCLDY    59  49  69 S17G23    29.88F
GRAYLING       MOCLDY    60  50  68 S12G20    29.90F
HARBOR SPRINGS CLOUDY    62  53  72 S10       29.83F
HOUGHTON LAKE  CLOUDY    58  50  75 S10       29.93F
MANISTEE       PTCLDY    63  48  59 S8G16     29.88F
OSCODA         PTCLDY    58  49  72 S17G28    29.93F
PELLSTON       MOCLDY    62  52  69 SW13G24   29.83F
ROGERS CITY    CLOUDY    58  53  84 SW5       29.89R
TRAVERSE CITY  MOCLDY    65  48  54 SW10G20   29.84F
$$
MIZ007>008-015-200500-
EASTERN UPPER MICHIGAN

CITY           SKY/WX    TMP DP  RH WIND       PRES   REMARKS
KINROSS        CLOUDY    57  55  94 SE12      29.81F
MACKINAC ISLAN CLOUDY    60  53  79 S8        29.83F
NEWBERRY       CLOUDY    60  52  75 S29G36    29.76F
S. S. MARIE    CLOUDY    56  53  90 SE7       29.80F
MUNISING         N/A     65  51  60 S14G28    29.69F
$$
MIZ004>006-011>014-085-200500-
CENTRAL UPPER MICHIGAN

CITY           SKY/WX    TMP DP  RH WIND       PRES   REMARKS
MANISTIQUE     CLOUDY    60  55  82 SW21G26   29.77S
ESCANABA       CLOUDY    61  54  77 SW15G22   29.76S
MENOMINEE      CLOUDY    64  52  63 SW15G21   29.77R
SAWYER-GWINN   CLOUDY    60  53  75 S12       29.72S
$$
MIZ001>003-009>011-084-200500-
WESTERN UPPER MICHIGAN

CITY           SKY/WX    TMP DP  RH WIND       PRES   REMARKS
IRON MOUNTAIN  CLOUDY    65  52  62 S10       29.72F
HOUGHTON       CLOUDY    64  56  75 SW10      29.64F
COPPER HARBOR    N/A     64  57  78 W9        29.61F
IRONWOOD       CLOUDY    66  61  82 SW8G16    29.64S
$$

ABBREVIATIONS USED IN REMARKS
   TC - TEMPERATURE IN CELSIUS
  WCI - WIND CHILL INDEX
   HX - HEAT INDEX
  VSB - VISIBILITY



USA.gov is the U.S. government's official web portal to all federal, state and local government web resources and services.